Weather History for KPIA - April, 2013

Change the Weather History Date:

Wednesday, April 17, 2013

  Actual Average Record
Temperature  
Mean Temperature 53 °F 53 °F  
Max Temperature 60 °F 64 °F 88 °F (1894)
Min Temperature 45 °F 42 °F 24 °F (1907)
Degree Days  
Heating Degree Days 12 13  
Month to date heating degree days 268 261  
Since 1 July heating degree days 5513 5533  
Cooling Degree Days 0 0  
Month to date cooling degree days 1 0  
Year to date cooling degree days 1 1  
Growing Degree Days 2 (Base 50)    
Moisture  
Dew Point 46 °F    
Average Humidity 77    
Maximum Humidity 93    
Minimum Humidity 60    
Precipitation  
Precipitation 2.47 in 0.12 in 2.47 in (2013)
Month to date precipitation 5.75 1.99  
Year to date precipitation 15.11 8.36  
Snow  
Snow 0.00 in 0.00 in 4.00 in (1912)
Month to date snowfall 0.0 0.5  
Since 1 July snowfall 22.7 24.5  
Snow Depth 0.00 in    
Sea Level Pressure  
Sea Level Pressure 29.95 in    
Wind  
Wind Speed 13 mph (NE)    
Max Wind Speed 38 mph    
Max Gust Speed 51 mph    
Visibility 6 miles    
Events Rain , Thunderstorm    
T = Trace of Precipitation, MM = Missing Value Source: NWS Daily Summary

Daily Weather History Graph

Daily Weather History Graph

Search for Another Location

Airport or City:

Trip Planner

Search our weather history database for the weather conditions in past years. The results will help you decide how hot, cold, wet, or windy it might be!

Date:

Astronomy

Apr. 17, 2013 Rise Set
Actual Time 6:16 AM CDT 7:40 PM CDT
Civil Twilight 5:48 AM CDT 8:09 PM CDT
Nautical Twilight 5:13 AM CDT 8:43 PM CDT
Astronomical Twilight 4:37 AM CDT 9:19 PM CDT
Moon 11:29 AM CDT (4/17) 1:18 AM CDT (4/17)
Length of Visible Light 14h 20m
Length of Day
13h 23m
Waxing Crescent, 42% of the Moon is Illuminated
Apr 17
Waxing Crescent
Apr 18
First Quarter
Apr 25
Full
May 2
Last Quarter
May 9
New

Hourly Weather History & Observations

Time (CDT) Temp. Windchill Dew Point Humidity Pressure Visibility Wind Dir Wind Speed Gust Speed Precip Events Conditions
12:54 AM 48.9 °F - 41.0 °F 74% 30.23 in 10.0 mi ENE 11.5 mph - N/A   Overcast
1:54 AM 46.9 °F - 36.0 °F 66% 30.21 in 10.0 mi East 15.0 mph - N/A   Overcast
2:54 AM 46.0 °F 38.8 °F 35.1 °F 66% 30.20 in 10.0 mi ENE 18.4 mph 23.0 mph N/A   Overcast
3:54 AM 46.0 °F 39.9 °F 34.0 °F 63% 30.19 in 10.0 mi ENE 13.8 mph - N/A   Overcast
4:54 AM 45.0 °F 37.9 °F 34.0 °F 65% 30.17 in 10.0 mi ENE 16.1 mph 25.3 mph N/A   Overcast
5:54 AM 45.0 °F 38.5 °F 35.1 °F 68% 30.16 in 10.0 mi East 13.8 mph 25.3 mph N/A   Overcast
6:13 AM 45.0 °F 37.9 °F 35.1 °F 68% 30.13 in 10.0 mi ENE 16.1 mph 28.8 mph N/A   Overcast
6:54 AM 45.0 °F 38.9 °F 35.1 °F 68% 30.14 in 10.0 mi East 12.7 mph 20.7 mph N/A   Overcast
7:54 AM 45.0 °F 38.2 °F 37.0 °F 74% 30.14 in 10.0 mi East 15.0 mph - 0.00 in Rain Light Rain
8:54 AM 46.4 °F 39.8 °F 37.4 °F 71% 30.09 in 10.0 mi East 16.1 mph 25.3 mph N/A   Overcast
9:41 AM 46.0 °F 40.2 °F 39.0 °F 76% 30.08 in 9.0 mi East 12.7 mph - N/A   Overcast
9:54 AM 46.0 °F 40.6 °F 39.9 °F 79% 30.09 in 7.0 mi ENE 11.5 mph - N/A   Overcast
10:54 AM 48.0 °F - 42.1 °F 80% 30.06 in 10.0 mi East 12.7 mph - N/A   Overcast
11:54 AM 51.1 °F - 45.0 °F 80% 30.02 in 10.0 mi East 10.4 mph - N/A   Overcast
12:25 PM 51.1 °F - 48.0 °F 89% 30.00 in 2.0 mi ESE 8.1 mph - N/A   Overcast
12:38 PM 51.1 °F - 48.9 °F 92% 29.98 in 1.8 mi ESE 9.2 mph - N/A   Overcast
12:54 PM 52.0 °F - 48.9 °F 89% 29.99 in 2.0 mi ESE 10.4 mph - N/A   Overcast
1:14 PM 53.1 °F - 50.0 °F 89% 29.96 in 3.0 mi ESE 8.1 mph - N/A   Overcast
1:54 PM 51.1 °F - 48.9 °F 92% 30.02 in 2.0 mi NW 11.5 mph - N/A   Overcast
1:58 PM 51.1 °F - 48.9 °F 92% 30.00 in 1.2 mi NNW 9.2 mph - 0.00 in Rain Light Rain
2:15 PM 48.9 °F - 48.0 °F 97% 29.99 in 1.5 mi NNE 8.1 mph 16.1 mph 0.01 in Rain Light Rain
2:29 PM 48.9 °F - 46.9 °F 93% 29.98 in 1.2 mi NNE 8.1 mph - 0.01 in Rain Light Rain
2:44 PM 48.0 °F - 46.0 °F 93% 29.98 in 1.8 mi North 9.2 mph 19.6 mph 0.01 in Rain Light Rain
2:54 PM 48.0 °F - 46.0 °F 93% 30.03 in 2.0 mi NNW 13.8 mph 20.7 mph 0.02 in Rain Light Rain
3:04 PM 46.0 °F 40.2 °F 44.1 °F 93% 30.00 in 1.2 mi North 12.7 mph 23.0 mph 0.00 in Rain Light Rain
3:36 PM 45.0 °F 38.9 °F 43.0 °F 93% 30.00 in 4.0 mi NNE 12.7 mph 26.5 mph 0.00 in Rain Light Rain
3:54 PM 45.0 °F 37.9 °F 42.1 °F 90% 30.00 in 8.0 mi ENE 16.1 mph 21.9 mph 0.00 in   Overcast
4:02 PM 45.0 °F 37.9 °F 43.0 °F 93% 29.97 in 7.0 mi East 16.1 mph 21.9 mph 0.01 in Rain Rain
4:07 PM 45.0 °F 38.9 °F 43.0 °F 93% 29.99 in 2.5 mi East 12.7 mph 21.9 mph 0.05 in Rain , Thunderstorm Heavy Rain
4:12 PM 45.0 °F 36.9 °F 43.0 °F 93% 29.93 in 1.2 mi ENE 20.7 mph - 0.09 in Rain , Thunderstorm Heavy Rain
4:23 PM 45.0 °F 38.2 °F 44.1 °F 97% 29.93 in 2.5 mi East 15.0 mph - 0.20 in Rain , Thunderstorm Light Rain
4:30 PM 45.0 °F 37.6 °F 44.1 °F 97% 29.92 in 6.0 mi ENE 17.3 mph - 0.23 in Rain Light Rain
4:52 PM 46.4 °F 41.9 °F 44.6 °F 93% 29.97 in 10.0 mi WNW 9.2 mph - 0.23 in Rain Light Rain
4:54 PM 46.0 °F 41.9 °F 45.0 °F 96% 29.98 in 10.0 mi NW 8.1 mph - 0.23 in Rain , Thunderstorm Light Thunderstorms and Rain
5:02 PM 46.0 °F 39.3 °F 45.0 °F 96% 29.90 in 1.8 mi ENE 16.1 mph - 0.06 in Rain , Thunderstorm Heavy Thunderstorms and Rain
5:18 PM 46.9 °F - 46.0 °F 97% 29.92 in 2.5 mi ESE 10.4 mph - 0.34 in Rain , Thunderstorm Heavy Thunderstorms and Rain
5:26 PM 46.9 °F - 46.0 °F 97% 29.91 in 3.0 mi East 9.2 mph - 0.38 in Rain Light Rain
5:47 PM 48.0 °F - 46.9 °F 96% 29.90 in 2.5 mi East 13.8 mph - 0.38 in Rain Light Rain
5:54 PM 48.0 °F - 46.9 °F 96% 29.88 in 3.0 mi ENE 13.8 mph - 0.38 in Rain Light Rain
6:25 PM 50.0 °F - 48.0 °F 93% 29.89 in 1.8 mi East 8.1 mph - 0.07 in Rain Heavy Rain
6:35 PM 50.0 °F - 48.9 °F 96% 29.89 in 3.0 mi NNW 3.5 mph - 0.14 in Rain Light Rain
6:46 PM 50.0 °F - 48.9 °F 96% 29.89 in 1.8 mi NNE 8.1 mph - 0.23 in Rain Heavy Rain
6:48 PM 50.0 °F - 48.2 °F 94% 29.89 in 1.2 mi North 6.9 mph - 0.28 in Rain , Thunderstorm Heavy Thunderstorms and Rain
6:54 PM 51.1 °F - 50.0 °F 96% 29.89 in 1.2 mi NE 10.4 mph - 0.50 in Rain , Thunderstorm Heavy Thunderstorms and Rain
6:58 PM 51.1 °F - 50.0 °F 96% 29.88 in 2.0 mi NNE 8.1 mph - 0.02 in Rain , Thunderstorm Light Thunderstorms and Rain
7:06 PM 51.1 °F - 50.0 °F 96% 29.85 in 6.0 mi NE 11.5 mph - 0.02 in Rain Light Rain
7:13 PM 51.1 °F - 50.0 °F 96% 29.87 in 7.0 mi NNE 8.1 mph 17.3 mph 0.02 in Rain Light Rain
7:29 PM 51.1 °F - 50.0 °F 96% 29.86 in 9.0 mi NNE 8.1 mph - 0.05 in Rain Light Rain
7:54 PM 51.1 °F - 50.0 °F 96% 29.83 in 9.0 mi East 12.7 mph - 0.05 in Rain Light Rain
8:02 PM 51.1 °F - 50.0 °F 96% 29.83 in 8.0 mi East 13.8 mph - 0.00 in Rain Light Rain
8:15 PM 53.1 °F - 52.0 °F 96% 29.86 in 10.0 mi NE 4.6 mph - 0.00 in Rain Light Rain
8:24 PM 55.0 °F - 53.1 °F 93% 29.85 in 10.0 mi Variable 4.6 mph - 0.01 in Rain Light Rain
8:54 PM 55.9 °F - 53.1 °F 90% 29.83 in 10.0 mi East 12.7 mph - 0.07 in Rain Light Rain
9:54 PM 55.0 °F - 53.1 °F 93% 29.81 in 7.0 mi Variable 5.8 mph 24.2 mph 0.05 in Rain Light Rain
10:02 PM 55.9 °F - 54.0 °F 93% 29.80 in 3.0 mi NW 15.0 mph 25.3 mph 0.05 in Rain , Thunderstorm Thunderstorms and Rain
10:09 PM 59.0 °F - 55.0 °F 87% 29.78 in 2.5 mi NNE 10.4 mph 25.3 mph 0.13 in Rain , Thunderstorm Thunderstorms and Rain
10:17 PM 57.9 °F - 55.0 °F 90% 29.73 in 1.8 mi ENE 26.5 mph 38.0 mph 0.29 in Rain , Thunderstorm Thunderstorms and Rain
10:22 PM 57.9 °F - 55.0 °F 90% 29.89 in 1.2 mi SW 38.0 mph 50.6 mph 0.40 in Rain , Thunderstorm Thunderstorms and Rain
10:26 PM 57.9 °F - 55.9 °F 93% 29.85 in 0.5 mi WNW 18.4 mph 50.6 mph 0.44 in Rain , Thunderstorm Thunderstorms and Rain
10:37 PM 57.9 °F - 57.0 °F 97% 29.80 in 1.8 mi North 11.5 mph 27.6 mph 0.93 in Rain , Thunderstorm Thunderstorms and Rain
10:40 PM 57.9 °F - 57.0 °F 97% 29.79 in 3.0 mi North 12.7 mph 21.9 mph 0.94 in Rain , Thunderstorm Thunderstorms and Rain
10:52 PM 57.2 °F - 55.4 °F 94% 29.76 in 5.0 mi ENE 18.4 mph - 0.99 in Rain , Thunderstorm Thunderstorms and Rain
10:54 PM 57.9 °F - 55.9 °F 93% 29.76 in 6.0 mi ENE 17.3 mph - 0.99 in Rain , Thunderstorm Thunderstorms and Rain
11:01 PM 57.9 °F - 55.9 °F 93% 29.78 in 8.0 mi ENE 12.7 mph - 0.02 in Rain , Thunderstorm Thunderstorms and Rain
11:44 PM 57.0 °F - 55.9 °F 96% 29.71 in 7.0 mi East 11.5 mph - 0.09 in Rain , Thunderstorm Thunderstorms and Rain
11:54 PM 57.0 °F - 55.9 °F 96% 29.69 in 5.0 mi East 11.5 mph 23.0 mph 0.14 in Rain , Thunderstorm Thunderstorms and Rain